User: anonymous   Login
Location: Unspecified
(0.0000°N, 0.0000°E)
Time: 12:37:30
(UTC+00:00)
Language:

E-STAR-II - Orbit

View from above orbital plane
View from above orbital plane
View from above satellite
View from above satellite

Ground track
Ground track

The orbit data is extracted from the following two-line orbital elements,

1 41459U 16025D   18115.09830222  .00001972  00000-0  10736-3 0  9998
2 41459  98.1418 174.9625 0170407 326.8120  32.2509 15.04258280109445
Epoch (UTC): 25 April 2018 02:21:33
Eccentricity: 0.0170407
inclination: 98.1418°
perigee height: 435 km
apogee height: 672 km
right ascension of ascending node: 174.9625°
argument of perigee: 326.8120°
revolutions per day: 15.04258280
mean anomaly at epoch: 32.2509°
orbit number at epoch: 10944

The dashed part of the orbit path shows where the satellite is in the earth's shadow,  

DLR